This is the latest recevied weather packets stored in our database for station/object W0AVQ. If no packets are shown the sender has not sent any weather packets the latest 10 day(s).
| Time | Temp. | Humidity | Pressure | Rain* | Wind** | Luminosity | Snow |
|---|---|---|---|---|---|---|---|
| 1777558259 | 14.44° C | 64% | 1020.5 hPa | 0 mm | - | 64 W/m² | - |
| 1777557956 | 13.89° C | 68% | 1020.4 hPa | 0 mm | - | 61 W/m² | - |
| 1777557653 | 14.44° C | 63% | 1020.7 hPa | 0 mm | - | 58 W/m² | - |
| 1777557349 | 14.44° C | 65% | 1020.7 hPa | 0 mm | - | 57 W/m² | - |
| 1777557045 | 14.44° C | 66% | 1020.5 hPa | 0 mm | - | 87 W/m² | - |
| 1777556741 | 15.56° C | 62% | 1020.7 hPa | 0 mm | - | 53 W/m² | - |
| 1777556437 | 14.44° C | 66% | 1020.4 hPa | 0 mm | - | 52 W/m² | - |
| 1777556132 | 13.89° C | 70% | 1020.5 hPa | 0 mm | - | 51 W/m² | - |
| 1777555828 | 13.33° C | 71% | 1020.4 hPa | 0 mm | - | 49 W/m² | - |
| 1777555523 | 13.33° C | 70% | 1020.7 hPa | 0 mm | - | 49 W/m² | - |
| 1777555220 | 12.22° C | 71% | 1020.6 hPa | 0 mm | - | 47 W/m² | - |
| 1777554917 | 12.22° C | 72% | 1020.8 hPa | 0 mm | - | 47 W/m² | - |
| 1777554614 | 12.78° C | 74% | 1020.3 hPa | 0 mm | - | 45 W/m² | - |
| 1777554310 | 12.22° C | 75% | 1020.7 hPa | 0 mm | - | 44 W/m² | - |
| 1777554008 | 12.22° C | 75% | 1020.4 hPa | 0 mm | - | 43 W/m² | - |
| 1777553704 | 12.22° C | 76% | 1020.6 hPa | 0 mm | - | 39 W/m² | - |
| 1777553401 | 11.67° C | 78% | 1020.5 hPa | 0 mm | - | 40 W/m² | - |
| 1777553097 | 11.11° C | 80% | 1020.8 hPa | 0 mm | - | 39 W/m² | - |
| 1777552797 | 10.56° C | 82% | 1020.8 hPa | 0 mm | - | 35 W/m² | - |
| 1777552493 | 10.56° C | 87% | 1020.6 hPa | 0 mm | - | 36 W/m² | - |
| 1777552189 | 10.56° C | 91% | 1020.4 hPa | 0 mm | - | 35 W/m² | - |
| 1777551886 | 9.44° C | 96% | 1020.6 hPa | 0 mm | - | 32 W/m² | - |
| 1777551579 | 10.56° C | 99% | 1020.5 hPa | 0 mm | - | 32 W/m² | - |
| 1777551275 | 10° C | 99% | 1020.8 hPa | 0 mm | - | 29 W/m² | - |
| 1777550972 | 9.44° C | 99% | 1020.4 hPa | 0 mm | - | 27 W/m² | - |
* Rain latest hour (hover to see other rain measurements)
** Current wind speed in m/s (hover to see current wind gust speed)